STARLINK-30094, 56305

Orbit data source: Space-Track

STARLINK-30094, 56305 is a payload satellite owned by SpaceX/Seattle (US) in LEO that was launched on Wed, 19 Apr 2023 UTC via an FALCON 9 launch vehicle from the Air Force Eastern Test Range (AFETR). Payload-class satellites include a variety of spacecraft equipped with specific instruments for various scientific and technological missions. These include communications satellites like Starlink; space stations such as the ISS; scientific satellites like the Hubble; Earth observation satellites from companies like Planet Labs, Umbra, and HawkEye 360; GPS; miniature CubeSats for education and research; and military/defense satellites.

Loading next visibility...
Identifier
56305, 2023-056V
Orbit
LEO
Country
Flag of USUS
Related business
Manufacturer
SpaceX/Seattle
Mission
Operational Commercial Communications
Bus & Motor
STARLINK V2M, Unknown motor
Mass
730 kg wet, ~700 kg dry
Launch date (UTC)
2023-04-19 (3 years ago)
Launch vehicle
FALCON 9
Launch site
Air Force Eastern Test Range (AFETR)
Object type
Payload
Rocket body
Debris
Shape & HBR
Box + 2 Pan, 17.7 m
Radar Cross Section
33.884 m², Large (>1 m²)

Expand to show TLE details & history
Last TLE update: 17 hours ago

TLE from 17 hours ago
0 STARLINK-30094
1 56305U 23056V   25348.91533430  .00000546  00000-0  55514-4 0  9994
2 56305  43.0028 310.6478 0001241 266.6037  93.4664 15.02529907147335
Epoch: 2025-12-14T21:58Z
TLE epoch observation values (Epoch: 2025-12-14T21:58:04.883Z)
Latitude
0.00002°
Longitude
-102.69393°
Altitude
558.929 km
Speed
7.584 km/s
True Right ascension
20h 42m 35s
True Declination
0° 00' 00"
Sunlit
Object was in daylight at epoch
Visualization orbit readout
Latitude
Unknown
Longitude
Unknown
Altitude
Unknown
Speed
Unknown
Apparent Right ascension
Unknown
Apparent Declination
Unknown
Sunlit
N/A
Visualization observer readout
Local Sidereal Time
13:18:57
Azimuth
Unknown
Elevation
Unknown
Doppler factor
Unknown
Orbital elements
Apogee altitude
561.883 km
Perigee altitude
560.161 km
Semi-major axis
6,939.159 km
Eccentricity
0.00012
Inclination
43.0028°
RAAN
310.6478°
Arg. of periapsis
266.6037°
True anomaly
93.48059°
Mean anomaly
93.4664°
Eccentric anomaly
93.4735°
Mean motion
3.75477 °/min
Orbital period
95.88 mins
BSTAR
0.000055514
Loading maneuver chart data...
Computing Atmospheric mass density...
Loading historical data...
Loading historical data...
Loading historical data...
Loading historical data...
Loading historical data...
Loading historical data...
Loading historical data...

Documentation

Showing up to 5 results
|